Radiation Dose at Monitoring Post of Fukushima Daini Nuclear Power Station
Date,Time,MP-1(microSv/h),MP-2(microSv/h),MP-3(microSv/h),MP-4(microSv/h),MP-5(microSv/h),MP-6(microSv/h),MP-7(microSv/h),Wind Direction,Wind Velocity(m/s),Rain
2021/03/24,00:00,0.171,0.152,0.249,0.235,0.234,0.134,0.084,south,4.7,No
2021/03/24,00:10,0.171,0.153,0.249,0.235,0.235,0.134,0.083,south,5.3,No
2021/03/24,00:20,0.171,0.153,0.248,0.236,0.234,0.134,0.082,south,4.9,No
2021/03/24,00:30,0.172,0.152,0.250,0.235,0.234,0.133,0.082,south,5.0,No
2021/03/24,00:40,0.172,0.152,0.249,0.235,0.234,0.133,0.082,south,3.9,No
2021/03/24,00:50,0.172,0.152,0.248,0.237,0.234,0.133,0.083,south-southwest,3.6,No
2021/03/24,01:00,0.171,0.152,0.249,0.235,0.234,0.134,0.082,south,4.0,No
2021/03/24,01:10,0.170,0.151,0.248,0.235,0.235,0.134,0.083,south-southwest,4.7,No
2021/03/24,01:20,0.171,0.152,0.248,0.235,0.234,0.133,0.083,south-southwest,6.0,No
2021/03/24,01:30,0.172,0.152,0.249,0.235,0.235,0.134,0.083,south-southwest,5.6,No
2021/03/24,01:40,0.170,0.152,0.248,0.235,0.234,0.134,0.083,south-southwest,5.8,No
2021/03/24,01:50,0.169,0.151,0.248,0.236,0.234,0.134,0.083,south-southwest,6.1,No
2021/03/24,02:00,0.171,0.152,0.248,0.235,0.234,0.134,0.083,south-southwest,5.4,No
2021/03/24,02:10,0.172,0.152,0.248,0.234,0.233,0.133,0.083,southwest,6.6,No
2021/03/24,02:20,0.171,0.153,0.248,0.234,0.234,0.134,0.083,south-southwest,5.9,No
2021/03/24,02:30,0.171,0.153,0.248,0.234,0.234,0.133,0.083,south-southwest,6.3,No
2021/03/24,02:40,0.171,0.151,0.247,0.234,0.233,0.133,0.082,south,4.9,No
2021/03/24,02:50,0.171,0.152,0.247,0.234,0.235,0.134,0.082,south-southwest,4.9,No
2021/03/24,03:00,0.170,0.152,0.248,0.235,0.234,0.133,0.082,south-southwest,4.8,No
2021/03/24,03:10,0.171,0.151,0.247,0.236,0.233,0.133,0.082,south,4.0,No
2021/03/24,03:20,0.172,0.152,0.247,0.234,0.235,0.134,0.082,south-southwest,3.0,No
2021/03/24,03:30,0.171,0.152,0.247,0.236,0.235,0.132,0.082,southwest,4.9,No
2021/03/24,03:40,0.171,0.152,0.249,0.235,0.235,0.133,0.082,west-southwest,5.3,No
2021/03/24,03:50,0.172,0.152,0.248,0.234,0.235,0.133,0.082,southwest,2.8,No
2021/03/24,04:00,0.171,0.153,0.247,0.235,0.234,0.133,0.082,south-southwest,1.0,No
2021/03/24,04:10,0.171,0.153,0.248,0.235,0.234,0.133,0.081,southwest,1.4,No
2021/03/24,04:20,0.171,0.153,0.248,0.236,0.234,0.134,0.083,south-southwest,1.1,No
2021/03/24,04:30,0.171,0.152,0.248,0.235,0.233,0.133,0.083,south-southwest,2.2,No
2021/03/24,04:40,0.171,0.152,0.248,0.235,0.234,0.134,0.083,south-southwest,2.3,No
2021/03/24,04:50,0.170,0.152,0.247,0.234,0.235,0.134,0.082,south-southwest,1.9,No
2021/03/24,05:00,0.171,0.152,0.248,0.234,0.234,0.134,0.083,south,3.0,No
2021/03/24,05:10,0.170,0.152,0.247,0.235,0.234,0.134,0.082,south,2.2,No
2021/03/24,05:20,0.171,0.152,0.248,0.235,0.233,0.133,0.083,south-southeast,2.1,No
2021/03/24,05:30,0.170,0.152,0.248,0.234,0.233,0.133,0.082,south-southeast,2.1,No
2021/03/24,05:40,0.170,0.152,0.248,0.235,0.234,0.133,0.082,south,2.8,No
2021/03/24,05:50,0.172,0.151,0.249,0.235,0.233,0.133,0.083,south,3.4,No
2021/03/24,06:00,0.170,0.152,0.248,0.235,0.234,0.133,0.083,south-southwest,3.7,No
2021/03/24,06:10,0.170,0.152,0.248,0.235,0.235,0.134,0.083,southwest,3.9,No
2021/03/24,06:20,0.171,0.152,0.249,0.235,0.234,0.133,0.082,south-southwest,4.4,No
2021/03/24,06:30,0.170,0.152,0.248,0.236,0.233,0.133,0.082,south-southwest,3.9,No
2021/03/24,06:40,0.170,0.152,0.249,0.234,0.234,0.133,0.082,south-southwest,4.0,No
2021/03/24,06:50,0.172,0.152,0.248,0.233,0.234,0.133,0.083,southwest,4.0,No
2021/03/24,07:00,0.170,0.152,0.247,0.236,0.236,0.133,0.082,south-southwest,3.1,No
2021/03/24,07:10,0.171,0.152,0.248,0.234,0.235,0.133,0.083,south-southwest,3.0,No
2021/03/24,07:20,0.170,0.152,0.247,0.234,0.233,0.134,0.083,southwest,3.3,No
2021/03/24,07:30,0.170,0.152,0.247,0.236,0.234,0.133,0.082,southwest,3.2,No
2021/03/24,07:40,0.172,0.151,0.247,0.233,0.234,0.133,0.082,southwest,2.3,No
2021/03/24,07:50,0.170,0.152,0.247,0.235,0.234,0.133,0.083,southwest,2.0,No
2021/03/24,08:00,0.171,0.151,0.246,0.233,0.235,0.134,0.083,south-southwest,2.4,No
2021/03/24,08:10,0.170,0.151,0.247,0.234,0.233,0.133,0.082,south-southwest,3.1,No
2021/03/24,08:20,0.171,0.151,0.246,0.233,0.234,0.134,0.082,south-southwest,4.5,No
2021/03/24,08:30,0.172,0.150,0.247,0.236,0.235,0.133,0.083,south-southwest,2.6,No
2021/03/24,08:40,0.171,0.152,0.246,0.232,0.234,0.133,0.082,southwest,3.2,No
2021/03/24,08:50,0.171,0.150,0.244,0.235,0.234,0.133,0.083,south,2.5,No
2021/03/24,09:00,0.169,0.151,0.247,0.233,0.233,0.132,0.082,south,2.3,No
2021/03/24,09:10,0.170,0.150,0.245,0.235,0.235,0.132,0.082,south-southeast,3.6,No
2021/03/24,09:20,0.170,0.151,0.248,0.234,0.232,0.133,0.082,south,6.4,No
2021/03/24,09:30,0.170,0.151,0.246,0.232,0.232,0.132,0.082,south-southeast,7.3,No
2021/03/24,09:40,0.169,0.151,0.245,0.237,0.235,0.132,0.083,south-southeast,7.3,No
2021/03/24,09:50,0.170,0.151,0.247,0.232,0.232,0.133,0.082,south,7.2,No
2021/03/24,10:00,0.171,0.151,0.247,0.233,0.235,0.132,0.082,south-southeast,8.7,No
2021/03/24,10:10,0.169,0.152,0.245,0.235,0.233,0.134,0.082,south-southeast,8.1,No
2021/03/24,10:20,0.171,0.150,0.246,0.232,0.233,0.133,0.081,south-southeast,7.2,No
2021/03/24,10:30,0.170,0.151,0.247,0.236,0.236,0.133,0.083,south-southeast,8.1,No
2021/03/24,10:40,0.170,0.151,0.245,0.235,0.232,0.133,0.082,south-southeast,9.3,No
2021/03/24,10:50,0.170,0.151,0.248,0.233,0.235,0.133,0.082,south-southeast,9.5,No
2021/03/24,11:00,0.169,0.151,0.247,0.235,0.233,0.134,0.082,south-southeast,10.1,No
2021/03/24,11:10,0.170,0.151,0.249,0.233,0.234,0.133,0.082,south-southeast,9.3,No
2021/03/24,11:20,0.171,0.151,0.247,0.235,0.234,0.134,0.083,south-southeast,9.8,No
2021/03/24,11:30,0.169,0.151,0.247,0.233,0.234,0.134,0.082,south-southeast,10.7,No
2021/03/24,11:40,0.171,0.152,0.248,0.236,0.235,0.133,0.082,south,11.2,No
2021/03/24,11:50,0.171,0.151,0.247,0.234,0.234,0.133,0.082,south-southeast,11.2,No
2021/03/24,12:00,0.169,0.152,0.249,0.235,0.236,0.133,0.082,south,10.3,No
2021/03/24,12:10,0.172,0.151,0.247,0.235,0.235,0.134,0.083,south-southeast,9.6,No
2021/03/24,12:20,0.170,0.152,0.249,0.235,0.233,0.133,0.082,south-southeast,12.3,No
2021/03/24,12:30,0.169,0.150,0.248,0.236,0.234,0.134,0.082,south-southeast,10.7,No
2021/03/24,12:40,0.171,0.151,0.246,0.234,0.233,0.134,0.082,south-southeast,10.3,No
2021/03/24,12:50,0.171,0.151,0.249,0.236,0.236,0.133,0.083,south-southeast,11.4,No
2021/03/24,13:00,0.169,0.153,0.249,0.235,0.234,0.134,0.082,south-southeast,10.1,No
2021/03/24,13:10,0.172,0.152,0.247,0.236,0.232,0.133,0.082,south-southeast,11.5,No
2021/03/24,13:20,0.170,0.152,0.249,0.235,0.234,0.134,0.082,south,11.5,No
2021/03/24,13:30,0.169,0.151,0.247,0.236,0.234,0.133,0.082,south,12.0,No
2021/03/24,13:40,0.172,0.151,0.249,0.236,0.234,0.135,0.082,south,12.5,No
2021/03/24,13:50,0.170,0.153,0.247,0.233,0.234,0.134,0.082,south,13.7,No
2021/03/24,14:00,0.169,0.151,0.248,0.236,0.233,0.133,0.082,south,13.7,No
2021/03/24,14:10,0.171,0.152,0.250,0.234,0.236,0.134,0.082,south,11.8,No
2021/03/24,14:20,0.171,0.151,0.246,0.235,0.234,0.133,0.082,south,12.3,No
2021/03/24,14:30,0.169,0.152,0.249,0.234,0.235,0.133,0.082,south,13.1,No
2021/03/24,14:40,0.172,0.152,0.249,0.235,0.235,0.133,0.082,south-southeast,11.5,No
2021/03/24,14:50,0.170,0.152,0.248,0.235,0.233,0.133,0.082,south,10.4,No
2021/03/24,15:00,0.170,0.152,0.250,0.235,0.235,0.133,0.082,south,13.4,No
2021/03/24,15:10,0.171,0.151,0.247,0.235,0.234,0.134,0.083,south,11.4,No
2021/03/24,15:20,0.170,0.152,0.249,0.236,0.237,0.133,0.083,south-southeast,11.2,No
2021/03/24,15:30,0.171,0.152,0.250,0.237,0.236,0.133,0.083,south,9.2,No
2021/03/24,15:40,0.172,0.153,0.250,0.238,0.234,0.133,0.082,south-southeast,9.5,No
2021/03/24,15:50,0.169,0.153,0.250,0.235,0.236,0.134,0.082,south-southeast,10.7,No
2021/03/24,16:00,0.171,0.153,0.250,0.237,0.234,0.134,0.083,south-southeast,10.4,No
2021/03/24,16:10,0.170,0.154,0.250,0.237,0.237,0.133,0.082,south,9.5,No
2021/03/24,16:20,0.171,0.152,0.248,0.237,0.233,0.135,0.082,south,10.3,No
2021/03/24,16:30,0.171,0.153,0.250,0.235,0.235,0.133,0.081,south,11.5,No
2021/03/24,16:40,0.171,0.153,0.250,0.237,0.234,0.134,0.082,south-southeast,11.8,No
2021/03/24,16:50,0.171,0.152,0.250,0.236,0.235,0.133,0.082,south,10.7,No
2021/03/24,17:00,0.170,0.153,0.250,0.236,0.234,0.134,0.081,south,11.4,No
2021/03/24,17:10,0.172,0.152,0.248,0.236,0.237,0.134,0.082,south-southeast,10.4,No
2021/03/24,17:20,0.170,0.152,0.250,0.237,0.235,0.133,0.082,south,10.6,No
2021/03/24,17:30,0.172,0.153,0.249,0.236,0.236,0.134,0.082,south,8.7,No
2021/03/24,17:40,0.171,0.152,0.248,0.237,0.234,0.133,0.082,south,7.4,No
2021/03/24,17:50,0.171,0.153,0.250,0.236,0.236,0.134,0.082,south,5.8,No
2021/03/24,18:00,0.171,0.153,0.249,0.237,0.235,0.133,0.082,south,4.6,No
2021/03/24,18:10,0.171,0.153,0.249,0.235,0.235,0.134,0.082,south,5.1,No
2021/03/24,18:20,0.171,0.152,0.249,0.237,0.236,0.133,0.082,south,5.5,No
2021/03/24,18:30,0.170,0.152,0.249,0.236,0.234,0.133,0.083,south,5.2,No
2021/03/24,18:40,0.171,0.153,0.249,0.236,0.236,0.133,0.083,south,3.4,No
2021/03/24,18:50,0.171,0.152,0.249,0.237,0.234,0.133,0.082,south,3.8,No
2021/03/24,19:00,0.171,0.152,0.249,0.236,0.235,0.134,0.082,south-southwest,4.1,No
2021/03/24,19:10,0.171,0.151,0.249,0.235,0.235,0.135,0.083,south-southwest,4.1,No
2021/03/24,19:20,0.170,0.152,0.248,0.236,0.234,0.133,0.083,south,4.2,No
2021/03/24,19:30,0.171,0.152,0.249,0.237,0.237,0.133,0.082,south,4.4,No
2021/03/24,19:40,0.170,0.153,0.249,0.236,0.235,0.134,0.082,south,5.0,No
2021/03/24,19:50,0.171,0.152,0.249,0.237,0.236,0.134,0.082,south,5.3,No
2021/03/24,20:00,0.171,0.152,0.250,0.234,0.236,0.134,0.082,south,5.4,No
2021/03/24,20:10,0.171,0.151,0.250,0.236,0.234,0.134,0.083,south,5.8,No
2021/03/24,20:20,0.170,0.153,0.249,0.236,0.234,0.133,0.082,south,5.0,No
2021/03/24,20:30,0.171,0.152,0.249,0.235,0.235,0.134,0.082,south,5.3,No
2021/03/24,20:40,0.170,0.153,0.249,0.235,0.234,0.134,0.082,south,5.6,No
2021/03/24,20:50,0.172,0.153,0.250,0.237,0.235,0.134,0.083,south,5.2,No
2021/03/24,21:00,0.172,0.153,0.249,0.235,0.234,0.134,0.082,south,4.9,No
2021/03/24,21:10,0.170,0.152,0.249,0.236,0.235,0.134,0.083,south,5.4,No
2021/03/24,21:20,0.171,0.153,0.249,0.237,0.234,0.135,0.083,south,5.6,No
2021/03/24,21:30,0.171,0.153,0.248,0.235,0.235,0.134,0.082,south-southwest,6.0,No
2021/03/24,21:40,0.171,0.152,0.250,0.236,0.236,0.134,0.082,south-southwest,6.3,No
2021/03/24,21:50,0.172,0.153,0.250,0.237,0.234,0.134,0.082,south,6.3,No
2021/03/24,22:00,0.170,0.152,0.248,0.234,0.235,0.134,0.082,south,5.7,No
2021/03/24,22:10,0.171,0.153,0.250,0.237,0.235,0.134,0.083,south,6.3,No
2021/03/24,22:20,0.172,0.153,0.250,0.236,0.234,0.134,0.083,south-southwest,6.7,No
2021/03/24,22:30,0.171,0.153,0.248,0.236,0.237,0.134,0.083,south-southwest,7.3,No
2021/03/24,22:40,0.171,0.153,0.249,0.237,0.234,0.134,0.083,south-southwest,7.2,No
2021/03/24,22:50,0.172,0.153,0.249,0.236,0.236,0.133,0.083,south-southwest,5.9,No
2021/03/24,23:00,0.172,0.152,0.249,0.237,0.235,0.134,0.083,south-southwest,5.5,No
2021/03/24,23:10,0.172,0.153,0.249,0.236,0.235,0.135,0.082,south-southwest,4.1,No
2021/03/24,23:20,0.171,0.153,0.249,0.237,0.234,0.135,0.082,south,3.8,No
2021/03/24,23:30,0.171,0.153,0.250,0.236,0.234,0.134,0.082,south,3.5,No
2021/03/24,23:40,0.172,0.152,0.249,0.237,0.235,0.134,0.083,south,4.4,No
2021/03/24,23:50,0.172,0.153,0.249,0.237,0.236,0.135,0.083,south-southwest,3.0,No
